Weather History for Middle Wallop, United Kingdom

Change the Weather History Date:

Monday, April 7, 2014

  Actual Average Record
Temperature  
Mean Temperature 48 °F -  
Max Temperature 55 °F 54 °F - ()
Min Temperature 42 °F 40 °F - ()
Degree Days  
Heating Degree Days 16    
Moisture  
Dew Point 49 °F    
Average Humidity 89    
Maximum Humidity 94    
Minimum Humidity 77    
Precipitation  
Precipitation 0.24 in - - ()
Sea Level Pressure  
Sea Level Pressure 29.78 in    
Wind  
Wind Speed 14 mph ()    
Max Wind Speed 21 mph    
Max Gust Speed 32 mph    
Visibility 5.7 miles    
Events Rain    
T = Trace of Precipitation, MM = Missing Value Source: Averaged Metar Reports

Daily Weather History Graph

Daily Weather History Graph

Search for Another Location

Airport:

Trip Planner

Search our weather history database for the weather conditions in past years. The results will help you decide how hot, cold, wet, or windy it might be!

Date:

Astronomy

Apr. 07, 2014 Rise Set
Actual Time 6:29 AM BST 7:48 PM BST
Civil Twilight 5:54 AM BST 8:23 PM BST
Nautical Twilight 5:13 AM BST 9:04 PM BST
Astronomical Twilight 4:28 AM BST 9:50 PM BST
Moon 11:52 AM BST (4/7) 2:35 AM BST (4/7)
Length of Visible Light 14h 28m
Length of Day
13h 19m
Waxing Crescent, 51% of the Moon is Illuminated
Apr 7
Waxing Crescent
Apr 15
Full
Apr 22
Last Quarter
Apr 29
New
May 7
First Quarter

Hourly Weather History & Observations

Time (BST) Temp. Windchill Dew Point Humidity Pressure Visibility Wind Dir Wind Speed Gust Speed Precip Events Conditions
12:00 AM 54 °F - 52 °F 89% 29.91 in 10 mi SSW 15.0 mph - -   Overcast
12:50 AM 53.6 °F - 51.8 °F 94% 29.89 in 2.5 mi SSW 16.1 mph - N/A   Mostly Cloudy
1:00 AM 54 °F - 52 °F 90% 29.91 in 2 mi SSW 16.1 mph - -   Mostly Cloudy
1:50 AM 53.6 °F - 51.8 °F 94% 29.89 in 5.6 mi SW 16.1 mph - N/A   Overcast
2:00 AM 54 °F - 51 °F 88% 29.90 in 6 mi SW 16.1 mph - -   Overcast
2:50 AM 53.6 °F - 51.8 °F 94% 29.86 in - SSW 13.8 mph - N/A   Overcast
3:00 AM 53 °F - 51 °F 92% 29.88 in 3 mi SSW 13.8 mph - -   Overcast
3:50 AM 53.6 °F - 50.0 °F 88% 29.86 in 3.1 mi SSW 15.0 mph - N/A   Mostly Cloudy
4:00 AM 53 °F - 51 °F 89% 29.87 in 3 mi SSW 15.0 mph - -   Mostly Cloudy
4:50 AM 53.6 °F - 50.0 °F 88% 29.83 in 4.3 mi South 15.0 mph - N/A   Scattered Clouds
5:00 AM 53 °F - 51 °F 89% 29.85 in 4 mi South 15.0 mph - -   Mostly Cloudy
5:50 AM 53.6 °F - 50.0 °F 88% 29.83 in 6.2 mi SSW 19.6 mph - N/A   Mostly Cloudy
6:00 AM 53 °F - 51 °F 89% 29.84 in 17 mi SSW 19.6 mph - -   Mostly Cloudy
6:50 AM 53.6 °F - 50.0 °F 88% 29.80 in 4.3 mi SSW 18.4 mph - N/A Rain Light Rain
7:00 AM 53 °F - 51 °F 88% 29.83 in 4 mi SSW 18.4 mph - - Rain Light Rain
7:50 AM 53.6 °F - 50.0 °F 88% 29.80 in 2.8 mi South 15.0 mph - N/A Rain Light Rain
8:00 AM 53 °F - 51 °F 89% 29.81 in 3 mi South 15.0 mph - - Rain Light Rain
8:50 AM 53.6 °F - 51.8 °F 94% 29.80 in 2.5 mi South 18.4 mph - N/A Rain Rain
9:00 AM 53 °F - 51 °F 92% 29.81 in 2 mi South 18.4 mph - - Rain Heavy Rain
9:50 AM 53.6 °F - 51.8 °F 94% 29.77 in 6.2 mi South 18.4 mph - N/A Rain Light Rain
10:00 AM 54 °F - 52 °F 89% 29.79 in 9 mi South 18.4 mph - - Rain Light Rain
10:50 AM 55.4 °F - 51.8 °F 88% 29.77 in 6.2 mi SSW 18.4 mph - N/A   Overcast
11:00 AM 55 °F - 51 °F 81% 29.78 in 19 mi SSW 18.4 mph - - Rain Light Rain
11:50 AM 53.6 °F - 51.8 °F 94% 29.74 in 6.2 mi SSW 17.3 mph - N/A Rain Light Rain
12:00 PM 54 °F - 51 °F 87% 29.76 in 6 mi SSW 17.3 mph - - Rain Light Rain
12:50 PM 53.6 °F - 51.8 °F 94% 29.74 in 2.5 mi SSW 20.7 mph 32.2 mph N/A   Light Drizzle
1:00 PM 54 °F - 51 °F 88% 29.75 in 2 mi SSW 20.7 mph - - Rain Light Drizzle
1:50 PM 53.6 °F - 51.8 °F 94% 29.71 in 2.8 mi SSW 19.6 mph - N/A   Light Drizzle
2:00 PM 54 °F - 51 °F 88% 29.73 in 3 mi SSW 19.6 mph - - Rain Light Drizzle
2:50 PM 53.6 °F - 51.8 °F 94% 29.68 in 1.9 mi SSW 16.1 mph - N/A   Light Drizzle
3:00 PM 54 °F - 53 °F 93% 29.71 in 2 mi SSW 16.1 mph - - Rain Light Drizzle
3:50 PM 53.6 °F - 51.8 °F 94% 29.68 in 6.2 mi SSW 16.1 mph - N/A   Mostly Cloudy
4:00 PM 54 °F - 52 °F 91% 29.69 in 6 mi SSW 16.1 mph - - Rain Light Rain
4:50 PM 53.6 °F - 51.8 °F 94% 29.65 in 2.5 mi SSW 12.7 mph - N/A Rain Rain
5:00 PM 54 °F - 52 °F 90% 29.68 in 2 mi SSW 12.7 mph - - Rain Heavy Rain
5:50 PM 53.6 °F - 51.8 °F 94% 29.65 in 6.2 mi SW 10.4 mph - N/A Rain Light Rain
6:00 PM 54 °F - 51 °F 88% 29.67 in 4 mi SW 10.4 mph - - Rain Light Rain
6:50 PM 48.2 °F - 46.4 °F 93% 29.68 in 6.2 mi West 15.0 mph - N/A Rain Light Rain
7:00 PM 49 °F - 46 °F 84% 29.71 in 7 mi West 15.0 mph - - Rain Light Rain
7:50 PM 48.2 °F - 42.8 °F 82% 29.71 in 6.2 mi West 15.0 mph - N/A   Scattered Clouds
8:00 PM 48 °F - 44 °F 79% 29.74 in 22 mi West 15.0 mph - - Rain Light Rain
8:50 PM 46.4 °F 39.5 °F 41.0 °F 81% 29.77 in 6.2 mi West 17.3 mph - N/A   Partly Cloudy
9:00 PM 46 °F - 41 °F 77% 29.79 in 16 mi West 17.3 mph - -   Scattered Clouds
9:50 PM 44.6 °F 39.2 °F 41.0 °F 87% 29.80 in 6.2 mi West 10.4 mph - N/A   Partly Cloudy
10:00 PM 45 °F - 41 °F 82% 29.82 in 19 mi West 10.4 mph - -   Partly Cloudy
10:50 PM 42.8 °F 38.6 °F 41.0 °F 93% 29.83 in 6.2 mi WSW 6.9 mph - N/A   Unknown
11:00 PM 44 °F - 40 °F 83% 29.84 in 25 mi WSW 6.9 mph - -  
11:50 PM 42.8 °F 38.6 °F 41.0 °F 93% 29.83 in 6.2 mi WSW 6.9 mph - N/A   Partly Cloudy